[[{"header":{"parameterUnit":"m.s-1","parameterCategory":1,"la1":30.2991,"la2":30.254,"lo1":-89.0895,"lo2":-89.0444,"dy":0.0017,"dx":0.0017,"nx":28,"ny":28,"refTime":"2024-08-20T03:00:00:Z","depth":0,"parameterNumber":2,"parameterNumberName":"U-component_of_WINDS"},"data":[0,0,0,0,0,0,0,0,0,0,0,0,0,0,0,0,0,0,0,0,0,0,0,0,0,0,0,0,0,0,0,0,0,0,0,0,0,0,0,0,0,0,0,0,0,0,0,0,0,0,0,0,0,0,0,0,0,0,-0.127,-0.127,0,-0.1319,-0.1319,-0.132,-0.1268,-0.1266,-0.1264,-0.1262,-0.132,-0.1323,-0.1326,0,0,0,0,0,0,0,0,0,0,0,0,0,-0.1137,-0.114,-0.1269,-0.127,-0.1271,-0.1318,-0.1319,-0.132,-0.1269,-0.1266,-0.1264,-0.1261,-0.1319,-0.1323,-0.1327,0,0,0,0,0,0,0,0,0,0,0,0,0,-0.1191,-0.114,-0.1269,-0.1251,-0.1249,-0.1318,-0.1319,-0.132,-0.1269,-0.1266,-0.1263,-0.126,-0.1317,-0.1322,-0.1327,-0.1419,0,0,-0.1343,-0.1345,0,0,0,0,0,0,0,0,-0.1188,-0.1196,-0.1253,-0.1252,-0.1251,-0.1284,-0.1293,-0.1354,-0.127,-0.1262,-0.1262,-0.1259,-0.1311,-0.1316,-0.1332,-0.1422,-0.1424,-0.1343,-0.1347,-0.1349,-0.135,0,0,0,0,0,0,0,-0.1185,-0.1194,-0.1289,-0.1254,-0.1253,-0.1242,-0.1246,-0.1305,-0.1303,-0.1262,-0.1259,-0.1265,-0.131,-0.1328,-0.1333,-0.1425,-0.1343,-0.1348,-0.1351,-0.1353,-0.1592,-0.1595,0,0,0,0,0,0,-0.1182,-0.1191,-0.1288,-0.1291,-0.1211,-0.1246,-0.1251,-0.1277,-0.1302,-0.1303,-0.1267,-0.1262,-0.132,-0.1327,-0.1335,-0.1445,-0.1349,-0.1353,-0.1356,-0.1589,-0.1593,-0.1596,0,0,0,0,0,0,-0.1179,-0.1191,-0.1286,-0.124,-0.1251,-0.1252,-0.1281,-0.1279,-0.1297,-0.1306,-0.1306,-0.1286,-0.1318,-0.1328,-0.1398,-0.1446,-0.1356,-0.136,-0.1585,-0.159,-0.1595,-0.1665,0,0,0,0,0,0,-0.1176,-0.119,-0.1224,-0.1241,-0.1253,-0.1347,-0.1284,-0.1282,-0.1305,-0.1299,-0.1323,-0.1324,-0.1317,-0.1391,-0.1403,-0.1452,-0.1364,-0.1581,-0.1587,-0.1593,-0.1658,-0.1672,-0.1683,0,0,0,0,0,-0.1171,-0.1244,-0.1226,-0.1238,-0.1296,-0.1349,-0.1357,-0.1345,-0.1309,-0.1344,-0.1349,-0.1323,-0.1438,-0.1398,-0.1412,-0.1463,-0.1578,-0.1585,-0.1593,-0.1653,-0.1669,-0.1683,0,0,0,0,0,0,-0.1236,-0.1246,-0.1227,-0.1306,-0.1327,-0.134,-0.1385,-0.1362,-0.1396,-0.1389,-0.1374,-0.138,-0.1455,-0.1465,-0.1421,-0.1552,-0.1502,-0.1513,-0.1543,-0.1559,-0.1571,-0.1568,-0.1369,0,0,0,0,0,-0.1259,-0.13,-0.1307,-0.1377,-0.1388,-0.1384,-0.1407,-0.1395,-0.1418,-0.1427,-0.1438,-0.1462,-0.1503,-0.1531,-0.157,-0.1658,-0.1664,-0.17,-0.1712,-0.1722,-0.1732,-0.178,-0.1797,-0.1621,-0.1621,-0.1621,0,0,-0.1309,-0.1319,-0.1346,-0.139,-0.1405,-0.1449,-0.1392,-0.1442,-0.1475,-0.1435,-0.1502,-0.151,-0.1536,-0.1616,-0.1652,-0.1627,-0.1781,-0.1731,-0.1739,-0.1744,-0.179,-0.1806,-0.1821,-0.1626,-0.1625,-0.1624,0,0,-0.1422,-0.1433,-0.1492,-0.1507,-0.1529,-0.1525,-0.1539,-0.1556,-0.1559,-0.1624,-0.1595,-0.1635,-0.1706,-0.1726,-0.1746,-0.1862,-0.184,-0.1875,-0.1941,-0.1988,-0.2002,-0.2014,-0.2058,-0.2073,-0.1885,-0.1885,-0.1885,0,-0.1482,-0.1546,-0.1526,-0.1577,-0.1598,-0.156,-0.1621,-0.1637,-0.1671,-0.1687,-0.1658,-0.1745,-0.176,-0.1844,-0.1872,-0.1889,-0.1906,-0.1874,-0.2001,-0.2013,-0.2024,-0.2066,-0.2082,-0.1889,-0.1889,-0.1888,-0.1888,0,-0.1619,-0.1663,-0.1709,-0.174,-0.1765,-0.1821,-0.1812,-0.184,-0.1825,-0.1825,-0.1892,-0.1908,-0.1949,-0.1967,-0.1954,-0.2049,-0.2033,-0.2003,-0.1953,-0.2046,-0.2085,-0.21,-0.1895,-0.1894,-0.1893,-0.1892,0,0,-0.1779,-0.1795,-0.1813,-0.1826,-0.1845,-0.1881,-0.1934,-0.1971,-0.1997,-0.202,-0.2067,-0.2126,-0.2097,-0.2119,-0.2108,-0.2149,-0.2242,-0.2113,-0.2114,-0.2138,-0.2349,-0.2374,-0.2392,-0.2225,-0.2228,-0.2231,-0.2347,0,-0.1894,-0.1985,-0.1968,-0.2058,-0.21,-0.2062,-0.2109,-0.2127,-0.2128,-0.2165,-0.2166,-0.2209,-0.2166,-0.2179,-0.2218,-0.2222,-0.2284,-0.2213,-0.2271,-0.2273,-0.2269,-0.2412,-0.2439,-0.2549,-0.2362,-0.2365,-0.2366,0,-0.2041,-0.2068,-0.2161,-0.2173,-0.219,-0.2232,-0.2264,-0.2298,-0.2318,-0.2316,-0.2338,-0.2319,-0.2374,-0.2319,-0.2396,-0.2348,-0.237,-0.2376,-0.238,-0.2387,-0.2328,-0.2426,-0.2583,-0.2601,-0.239,-0.2388,-0.2386,0,-0.2151,-0.221,-0.2273,-0.2286,-0.23,-0.2331,-0.2339,-0.2355,-0.2378,-0.2406,-0.2421,-0.2456,-0.2476,-0.2504,-0.2495,-0.2456,-0.2574,-0.2519,-0.2576,-0.2576,-0.2606,-0.2605,-0.2771,-0.2615,-0.2615,-0.2614,-0.2614,0,-0.2283,-0.2343,-0.2323,-0.2363,-0.2428,-0.2407,-0.2473,-0.2476,-0.249,-0.2531,-0.25,-0.254,-0.2523,-0.2562,-0.2554,-0.262,-0.2629,-0.263,-0.2628,-0.2634,-0.2635,-0.2651,-0.2645,-0.2619,-0.2618,-0.2617,-0.2616,0,-0.2419,-0.2408,-0.2475,-0.2481,-0.2484,-0.2532,-0.2539,-0.2577,-0.2573,-0.2625,-0.2636,-0.2631,-0.2675,-0.2667,-0.2716,-0.271,-0.2793,-0.278,-0.2786,-0.2784,-0.2842,-0.2838,-0.3028,-0.3052,-0.2878,-0.2879,-0.2881,0,-0.2506,-0.255,-0.256,-0.2584,-0.2593,-0.2632,-0.2654,-0.2635,-0.266,-0.2683,-0.2719,-0.2758,-0.279,-0.2861,-0.2863,-0.29,-0.289,-0.2954,-0.2896,-0.29,-0.2894,-0.2892,-0.2897,-0.2967,-0.2969,-0.297,-0.2972,0,-0.2662,-0.2653,-0.2685,-0.2715,-0.2741,-0.2764,-0.2785,-0.2807,-0.2789,-0.2818,-0.286,-0.2884,-0.2932,-0.2973,-0.3006,-0.3016,-0.2992,-0.2989,-0.3004,-0.3013,-0.3016,-0.3017,-0.282,-0.2986,-0.2984,-0.2983,-0.2983,-0.2982,-0.2777,-0.2815,-0.2827,-0.2864,-0.2876,-0.2895,-0.293,-0.2929,-0.2964,-0.3,-0.2986,-0.3035,-0.3052,-0.3094,-0.3107,-0.3146,-0.3123,-0.3145,-0.3151,-0.3157,-0.3165,-0.3006,-0.3152,-0.3151,-0.3151,-0.3151,-0.315,0,-0.2934,-0.2939,-0.2972,-0.3,-0.3029,-0.2998,-0.3019,-0.3046,-0.3088,-0.3105,-0.3135,-0.3183,-0.3222,-0.3225,-0.3262,-0.3292,-0.3282,-0.3303,-0.3302,-0.3305,-0.3183,-0.3167,-0.3311,-0.3311,-0.3311,-0.331,-0.331,-0.331,-0.3019,-0.308,-0.3073,-0.314,-0.3145,-0.3191,-0.3205,-0.3223,-0.3236,-0.3291,-0.3321,-0.3322,-0.3334,-0.337,-0.3404,-0.3404,-0.3421,-0.3446,-0.3443,-0.333,-0.3314,-0.3299,-0.3284,-0.3449,-0.3449,-0.3561,-0.3562,-0.3563]},{"header":{"parameterUnit":"m.s-1","parameterCategory":1,"la1":30.2991,"la2":30.254,"lo1":-89.0895,"lo2":-89.0444,"dy":0.0017,"dx":0.0017,"nx":28,"ny":28,"refTime":"2024-08-20T03:00:00:Z","depth":0,"parameterNumber":3,"parameterNumberName":"V-component_of_WINDS"},"data":[0,0,0,0,0,0,0,0,0,0,0,0,0,0,0,0,0,0,0,0,0,0,0,0,0,0,0,0,0,0,0,0,0,0,0,0,0,0,0,0,0,0,0,0,0,0,0,0,0,0,0,0,0,0,0,0,0,0,-2.9136,-2.9136,0,-2.9163,-2.9164,-2.9164,-2.9112,-2.9111,-2.9109,-2.9107,-2.9133,-2.9135,-2.9138,0,0,0,0,0,0,0,0,0,0,0,0,0,-2.9036,-2.9038,-2.9136,-2.9136,-2.9136,-2.9163,-2.9164,-2.9164,-2.9113,-2.911,-2.9108,-2.9106,-2.9132,-2.9135,-2.9138,0,0,0,0,0,0,0,0,0,0,0,0,0,-2.9073,-2.9038,-2.9136,-2.9114,-2.9112,-2.9163,-2.9164,-2.9164,-2.9113,-2.911,-2.9108,-2.9105,-2.9132,-2.9135,-2.9138,-2.9211,0,0,-2.9149,-2.915,0,0,0,0,0,0,0,0,-2.9071,-2.9076,-2.9117,-2.9116,-2.9114,-2.9132,-2.9138,-2.918,-2.9114,-2.9113,-2.9107,-2.9104,-2.9135,-2.9138,-2.9148,-2.9212,-2.9213,-2.9149,-2.9151,-2.9153,-2.9154,0,0,0,0,0,0,0,-2.9068,-2.9075,-2.9147,-2.9118,-2.9116,-2.9102,-2.9104,-2.9145,-2.9138,-2.9113,-2.9109,-2.9113,-2.9133,-2.9145,-2.9149,-2.9213,-2.9149,-2.9152,-2.9154,-2.9155,-2.9336,-2.9339,0,0,0,0,0,0,-2.9069,-2.9073,-2.9146,-2.9147,-2.9086,-2.9106,-2.9109,-2.9129,-2.9137,-2.9136,-2.9115,-2.911,-2.9141,-2.9145,-2.9149,-2.9233,-2.9153,-2.9156,-2.9158,-2.9333,-2.9337,-2.934,0,0,0,0,0,0,-2.9067,-2.9076,-2.9145,-2.9109,-2.9117,-2.911,-2.9133,-2.913,-2.9142,-2.9139,-2.9137,-2.9129,-2.9139,-2.9144,-2.9196,-2.9233,-2.9157,-2.916,-2.933,-2.9334,-2.9338,-2.9403,0,0,0,0,0,0,-2.9064,-2.9075,-2.9103,-2.911,-2.9119,-2.9191,-2.9136,-2.9133,-2.9149,-2.9143,-2.9151,-2.915,-2.9137,-2.9191,-2.9199,-2.9237,-2.9163,-2.9327,-2.9332,-2.9337,-2.9397,-2.9409,-2.9418,0,0,0,0,0,-2.9061,-2.912,-2.9105,-2.9114,-2.9154,-2.9194,-2.9199,-2.9183,-2.9152,-2.918,-2.9177,-2.915,-2.9229,-2.9196,-2.9205,-2.9245,-2.9324,-2.933,-2.9336,-2.9393,-2.9406,-2.9418,0,0,0,0,0,0,-2.9117,-2.9121,-2.9104,-2.9168,-2.9181,-2.9185,-2.9219,-2.9198,-2.922,-2.9213,-2.9192,-2.9195,-2.925,-2.9252,-2.9217,-2.9315,-2.9271,-2.9279,-2.931,-2.9324,-2.9334,-2.9331,-2.9166,0,0,0,0,0,-2.9137,-2.917,-2.9171,-2.9227,-2.9235,-2.9226,-2.9243,-2.923,-2.9242,-2.9247,-2.9248,-2.9261,-2.9288,-2.9306,-2.9331,-2.9398,-2.9398,-2.9429,-2.944,-2.9449,-2.9456,-2.9489,-2.9503,-2.936,-2.936,-2.936,0,0,-2.9179,-2.9185,-2.9207,-2.9239,-2.9247,-2.928,-2.9231,-2.9268,-2.9292,-2.9252,-2.93,-2.9302,-2.9314,-2.9373,-2.9399,-2.9377,-2.9495,-2.9457,-2.9464,-2.9466,-2.9497,-2.9511,-2.9523,-2.9364,-2.9363,-2.9363,0,0,-2.9271,-2.928,-2.9327,-2.9336,-2.935,-2.9344,-2.9355,-2.9363,-2.9362,-2.9411,-2.9381,-2.9409,-2.9457,-2.9466,-2.9477,-2.9573,-2.9548,-2.9582,-2.9636,-2.967,-2.9681,-2.9691,-2.9723,-2.9735,-2.9589,-2.9589,-2.9589,0,-2.932,-2.937,-2.9353,-2.9393,-2.9407,-2.9373,-2.942,-2.943,-2.9451,-2.9461,-2.9437,-2.9495,-2.9501,-2.9561,-2.9584,-2.9595,-2.9606,-2.958,-2.9681,-2.969,-2.9699,-2.973,-2.9742,-2.9593,-2.9592,-2.9592,-2.9592,0,-2.9429,-2.9464,-2.95,-2.9522,-2.954,-2.9583,-2.9572,-2.9593,-2.9578,-2.9574,-2.9623,-2.9629,-2.9654,-2.9668,-2.9654,-2.9726,-2.9711,-2.9684,-2.964,-2.9717,-2.9745,-2.9757,-2.9598,-2.9597,-2.9596,-2.9595,0,0,-2.9557,-2.9569,-2.9582,-2.9591,-2.9604,-2.963,-2.9671,-2.9696,-2.9713,-2.9729,-2.9762,-2.9803,-2.9778,-2.979,-2.9777,-2.9807,-2.988,-2.9776,-2.9776,-2.9793,-2.9958,-2.9977,-2.9991,-2.9864,-2.9867,-2.9868,-2.9956,0,-2.9647,-2.9718,-2.9704,-2.9773,-2.9804,-2.9772,-2.9807,-2.9819,-2.9816,-2.9841,-2.9838,-2.9867,-2.9833,-2.984,-2.9868,-2.9865,-2.9912,-2.9859,-2.9893,-2.9894,-2.9889,-3.0006,-3.0026,-3.0109,-2.9967,-2.9969,-2.9971,0,-2.9761,-2.9782,-2.9854,-2.9861,-2.9873,-2.9905,-2.9926,-2.9952,-2.9963,-2.9959,-2.9974,-2.9954,-2.9994,-2.995,-3.0003,-2.9967,-2.998,-2.9981,-2.9984,-2.9985,-2.9936,-3.0008,-3.0135,-3.0147,-2.9988,-2.9987,-2.9986,0,-2.9845,-2.989,-2.9939,-2.9948,-2.9958,-2.9981,-2.9986,-2.9995,-3.0011,-3.0029,-3.0039,-3.0062,-3.0074,-3.0092,-3.0079,-3.0048,-3.0133,-3.0089,-3.013,-3.013,-3.0148,-3.0146,-3.0276,-3.0159,-3.0159,-3.0159,-3.0159,0,-2.9946,-2.9991,-2.9977,-3.0006,-3.0055,-3.0039,-3.0088,-3.0089,-3.0097,-3.0126,-3.01,-3.0127,-3.0109,-3.0135,-3.0125,-3.017,-3.0176,-3.0173,-3.0169,-3.0174,-3.0174,-3.0181,-3.0174,-3.0162,-3.0162,-3.0161,-3.016,0,-3.0047,-3.004,-3.009,-3.0096,-3.0098,-3.0134,-3.0137,-3.0165,-3.0161,-3.0197,-3.0204,-3.0198,-3.0226,-3.0216,-3.0246,-3.0239,-3.0296,-3.0286,-3.0292,-3.0289,-3.033,-3.0325,-3.0467,-3.0484,-3.0358,-3.0359,-3.036,0,-3.0111,-3.0145,-3.0154,-3.0171,-3.0178,-3.0207,-3.0223,-3.0208,-3.0226,-3.0241,-3.0266,-3.0293,-3.0313,-3.036,-3.0357,-3.038,-3.0369,-3.0417,-3.0372,-3.0375,-3.0367,-3.0365,-3.0367,-3.0425,-3.0427,-3.0428,-3.0429,0,-3.0225,-3.0219,-3.0244,-3.0267,-3.0287,-3.0304,-3.0319,-3.0335,-3.032,-3.0341,-3.037,-3.0386,-3.0417,-3.0443,-3.0464,-3.0468,-3.0446,-3.0444,-3.0454,-3.0458,-3.046,-3.0458,-3.0315,-3.044,-3.0439,-3.0438,-3.0437,-3.0437,-3.0308,-3.0336,-3.0347,-3.0374,-3.0384,-3.0399,-3.0424,-3.0423,-3.0448,-3.0472,-3.0462,-3.0495,-3.0505,-3.053,-3.0537,-3.0562,-3.0543,-3.0559,-3.0562,-3.0566,-3.057,-3.0457,-3.0566,-3.0566,-3.0565,-3.0565,-3.0565,0,-3.0419,-3.0424,-3.045,-3.0472,-3.0493,-3.0472,-3.0487,-3.0506,-3.0536,-3.0548,-3.0568,-3.0601,-3.0626,-3.0626,-3.0649,-3.0669,-3.0659,-3.0675,-3.0673,-3.0674,-3.0587,-3.0575,-3.0683,-3.0683,-3.0682,-3.0682,-3.0682,-3.0682,-3.0479,-3.0525,-3.0521,-3.0571,-3.0576,-3.0609,-3.0619,-3.0632,-3.0641,-3.0679,-3.07,-3.0699,-3.0706,-3.0729,-3.0751,-3.075,-3.0758,-3.0778,-3.0773,-3.0692,-3.068,-3.0669,-3.0657,-3.078,-3.0781,-3.0857,-3.0858,-3.0859]}]]